Theta_e
305 305 305 306 306 307 307 307 305 303 302 302 302 302 302 301 302 298 293 294 292 288 287 289 290 285 284 284 283 284 283 285 284 283 286 284 278 282 279 285 284 280 278 278 283 281 276 294 293 288 292 296 296 295
305 305 305 305 306 307 307 306 304 303 302 302 301 301 301 301 302 301 292 295 296 291 287 291 292 293 292 291 285 284 284 287 287 281 284 282 281 280 280 273 287 277 286 284 282 280 289 294 295 298 299 296 293 292
306 305 305 305 306 307 307 305 304 302 302 301 301 301 301 301 302 301 295 293 294 288 285 284 286 291 294 294 296 283 285 290 289 295 289 288 285 284 282 283 283 287 289 283 286 288 292 296 296 298 297 292 293 295
305 305 305 305 306 306 306 305 303 302 301 301 301 301 301 302 302 300 294 293 294 290 283 283 293 291 295 294 293 294 292 294 296 296 291 289 286 290 283 286 285 288 289 288 289 292 295 296 297 295 292 294 295 297
304 305 305 305 306 306 306 304 302 302 301 301 301 301 301 301 301 299 295 296 296 287 281 283 290 293 294 295 294 296 294 294 293 292 290 288 291 289 291 289 286 290 288 288 287 294 293 295 295 295 294 295 296 296
304 304 304 305 306 306 306 304 302 301 301 300 301 301 302 302 301 294 287 297 296 293 288 282 289 290 295 297 297 295 294 294 295 293 292 293 295 292 287 285 290 293 296 297 294 298 298 296 294 297 296 295 296 296
304 304 303 304 306 306 305 303 301 301 300 300 301 301 301 301 298 290 287 295 299 298 290 286 283 289 293 296 299 297 297 296 296 294 292 293 293 293 288 285 292 296 297 299 300 296 293 294 292 296 296 296 297 297
303 302 302 302 305 306 304 302 301 300 300 300 301 301 302 302 300 295 296 300 301 291 293 284 282 285 293 289 289 300 296 296 296 294 294 292 293 292 287 292 295 297 299 300 297 296 294 295 296 296 295 296 294 294
303 302 302 303 305 305 303 301 300 299 300 300 301 303 298 295 293 298 306 304 301 295 288 287 284 281 291 289 289 293 297 290 296 291 292 292 290 286 291 294 296 298 298 297 297 295 296 293 294 293 293 294 293 294
302 302 302 304 305 304 301 299 299 299 300 300 297 294 295 296 303 305 299 294 294 294 292 285 290 286 291 291 286 288 292 291 288 291 295 289 289 296 298 300 301 301 299 297 293 292 292 292 293 292 293 294 294 294
302 302 302 303 305 303 299 298 298 299 296 290 287 288 291 297 292 289 287 289 290 287 289 289 288 286 291 288 289 293 284 289 287 289 290 286 287 292 295 296 302 300 300 297 295 295 295 295 294 293 293 294 293 293
302 302 302 304 304 300 299 297 297 292 290 290 291 293 291 290 288 284 283 290 287 286 290 286 285 288 288 296 292 292 289 292 286 294 291 287 288 291 292 295 302 300 299 296 296 295 295 295 296 295 293 293 293 293
302 303 303 304 302 299 298 297 297 298 296 294 291 289 286 285 279 283 280 281 281 286 287 287 284 286 287 293 291 290 288 286 293 287 286 288 290 291 292 299 303 298 298 297 296 297 295 295 296 295 293 294 293 293
303 303 304 302 300 298 298 297 298 295 292 290 288 278 282 283 284 282 281 282 285 286 286 284 282 283 286 287 290 286 290 290 283 280 282 287 289 290 295 299 301 299 297 297 296 297 295 296 295 295 294 294 293 292
303 304 303 300 299 297 297 298 297 294 292 289 287 277 282 285 285 285 285 284 285 285 283 283 284 285 284 287 289 287 286 281 282 280 284 288 290 291 293 296 299 301 297 296 296 295 295 296 294 294 294 294 293 293
303 301 297 298 298 297 297 296 294 294 292 288 286 283 284 283 282 283 283 285 287 285 285 285 283 283 284 284 283 279 278 276 280 284 287 290 290 291 293 296 302 304 302 295 296 296 296 296 295 294 294 294 293 293
298 293 297 297 297 298 297 293 293 291 288 287 283 286 283 283 283 284 285 287 288 285 281 282 280 279 286 278 274 280 277 281 284 286 289 290 290 291 293 296 300 303 302 299 296 296 295 296 296 295 293 294 294 294
293 296 298 297 297 295 293 293 292 290 285 286 283 285 285 286 285 286 288 288 287 286 284 283 284 279 278 273 274 282 284 286 287 287 288 289 291 292 294 295 298 301 303 298 297 296 296 295 293 293 294 294 294 293
295 298 298 299 295 293 291 292 292 286 286 286 287 286 288 288 288 288 286 286 288 287 285 282 280 279 279 283 282 284 285 285 284 285 287 289 290 292 294 295 296 299 304 301 295 294 295 295 294 294 293 294 291 293
299 300 299 298 295 291 291 289 292 286 284 286 286 287 286 286 286 284 284 284 284 282 281 281 281 284 284 287 287 286 286 287 286 284 285 288 291 292 292 293 293 297 299 300 301 293 294 293 294 294 293 293 292 291
294 296 297 293 290 291 290 289 286 287 286 284 288 287 285 285 283 282 282 283 281 279 280 284 285 287 289 290 289 285 287 288 286 287 286 287 290 290 290 291 292 294 293 294 294 299 293 293 293 294 293 292 292 293
293 297 291 293 291 292 288 289 287 287 285 285 285 288 284 282 281 281 283 281 280 284 286 286 287 288 288 289 286 286 288 289 290 289 289 289 288 288 288 289 290 290 290 291 291 293 297 294 293 293 293 292 292 292
296 295 292 292 289 285 284 290 285 286 283 284 285 285 284 282 283 285 278 283 283 289 288 288 289 289 288 290 288 285 286 288 288 289 288 287 288 289 289 290 290 289 288 289 291 292 295 294 292 293 293 293 293 291
296 291 288 287 285 282 288 285 286 284 285 282 282 283 284 283 285 280 277 280 285 287 286 287 288 286 284 283 282 282 283 287 287 289 290 287 286 286 288 289 289 290 289 289 291 291 293 295 295 295 295 292 292 291
284 283 283 278 286 284 284 284 284 282 282 283 283 282 282 285 282 279 278 275 280 284 285 286 286 282 280 281 282 281 282 282 285 286 286 288 287 287 287 287 288 289 289 288 288 289 290 292 294 296 298 295 291 291
277 282 281 283 283 284 283 282 282 282 283 283 284 285 282 279 278 278 277 279 282 283 279 285 280 279 279 281 279 278 279 280 281 286 284 284 285 285 283 284 284 285 288 288 288 287 287 289 290 292 295 295 288 292
277 279 284 289 287 287 284 285 285 282 282 282 283 282 280 276 277 281 282 284 285 286 285 284 285 283 280 280 280 280 280 280 280 280 282 282 282 283 283 283 284 284 287 288 287 286 286 287 288 289 291 294 294 293
283 284 281 283 284 284 283 283 283 282 283 285 285 281 279 277 279 282 283 284 284 283 283 283 283 284 282 281 280 279 279 279 279 280 279 280 281 282 282 283 286 285 286 286 285 285 286 285 285 287 289 291 295 294
283 285 286 282 283 283 285 284 284 286 288 287 283 280 281 284 281 280 283 284 283 282 280 280 281 283 281 280 280 279 278 275 277 275 274 274 275 277 281 281 283 284 284 284 284 283 283 284 285 286 288 290 294 298
283 287 283 285 283 283 286 287 286 286 286 285 285 283 281 280 282 283 284 281 280 279 280 280 280 280 278 278 277 278 278 277 273 273 270 271 273 278 279 280 280 282 282 282 282 281 282 284 284 285 286 289 292 292
286 286 285 285 285 287 287 288 287 287 286 284 284 281 279 280 282 283 282 280 280 280 280 279 279 279 279 278 277 275 275 277 277 277 277 276 276 276 278 279 280 281 280 279 280 279 278 280 280 280 280 281 283 284
285 285 284 282 283 287 289 287 284 283 282 281 280 281 280 278 277 279 281 280 280 279 279 279 279 278 279 279 279 279 278 278 278 278 278 277 276 277 277 277 279 280 279 277 277 277 276 276 277 278 278 279 280 280
283 285 286 286 284 286 287 287 286 282 282 280 281 281 280 277 274 277 283 284 280 276 277 279 279 279 281 281 280 280 279 279 278 277 276 276 276 276 276 276 278 279 278 277 276 275 274 274 274 275 276 277 278 279
Wind_Speed
13 14 13 12 12 11 10 7 6 8 9 11 11 11 11 10 10 4 4 4 2 4 12 7 5 5 1 3 4 4 6 4 4 3 3 2 2 3 3 4 3 3 3 4 3 3 8 3 0 3 7 13 13 13
14 14 13 12 12 12 11 8 6 7 9 11 11 11 11 10 10 7 2 2 1 4 9 3 14 15 13 16 4 3 5 4 4 3 3 3 4 3 1 4 4 3 2 2 7 8 6 4 7 13 13 11 13 16
14 14 13 13 12 12 11 9 7 7 9 10 11 12 12 11 10 5 3 2 2 3 6 4 4 5 6 15 14 5 3 7 4 4 2 2 4 2 2 4 3 4 3 4 4 5 5 9 9 6 7 9 13 17
14 14 14 13 12 12 10 9 8 8 9 10 12 13 13 12 11 9 2 3 2 2 5 9 4 9 7 3 8 17 2 1 3 3 2 2 2 3 3 6 6 8 4 6 6 11 11 13 5 15 9 11 19 19
15 14 13 12 13 13 11 9 8 10 10 11 12 14 13 12 12 6 4 4 6 4 3 7 14 5 7 5 9 11 13 5 2 2 3 3 3 2 3 3 4 4 7 5 8 9 14 10 9 10 15 16 21 17
17 15 12 12 12 13 11 9 9 10 10 12 13 13 14 12 9 2 4 2 3 4 3 5 5 7 11 9 2 7 8 6 3 3 3 3 3 2 3 4 5 6 8 6 8 8 11 13 6 17 15 21 14 16
17 13 11 13 13 13 12 10 9 11 12 14 14 13 13 10 1 2 3 3 5 2 3 4 5 6 6 5 2 2 4 3 3 2 3 3 3 4 3 4 3 15 12 14 11 4 7 5 13 19 17 12 17 15
18 15 13 14 16 13 11 10 9 12 14 16 16 16 15 9 4 4 4 10 6 3 2 3 6 6 5 4 4 1 3 2 3 2 1 2 2 3 5 8 10 14 13 12 7 5 7 9 18 14 12 11 12 13
20 17 15 17 16 12 10 9 9 13 15 18 18 7 4 3 2 2 3 9 1 1 2 1 4 5 5 4 3 3 1 2 1 3 3 3 1 4 7 12 14 17 7 8 6 6 8 14 15 13 12 14 12 13
21 18 16 16 14 11 9 8 9 12 16 16 2 2 2 2 5 5 2 0 1 1 1 3 2 4 2 2 4 2 1 2 3 4 3 2 2 8 12 14 13 7 8 6 6 8 14 16 12 12 13 11 9 10
21 18 16 15 14 11 7 6 6 11 6 3 3 0 2 7 2 1 1 2 2 1 2 4 5 5 3 3 3 2 3 3 3 1 2 0 2 16 24 22 15 5 6 5 3 5 9 12 12 12 12 11 11 11
22 18 17 16 13 11 8 5 3 2 1 2 1 1 2 1 1 1 3 3 3 2 3 4 5 5 5 3 3 2 3 2 2 2 2 4 6 20 23 22 21 4 4 3 4 7 10 9 9 9 11 12 10 9
21 18 17 15 15 12 9 5 3 4 1 1 1 1 2 2 2 2 2 3 3 2 4 3 4 3 4 3 3 2 4 2 4 4 4 3 14 18 20 18 14 4 4 5 5 6 8 11 12 11 10 10 10 9
19 18 16 17 15 12 9 6 4 2 1 2 2 1 4 3 2 2 3 4 5 3 5 3 3 3 2 2 1 3 3 3 2 5 5 9 18 22 22 16 15 7 7 5 5 6 8 10 11 13 14 13 12 11
18 16 17 16 15 12 9 6 4 2 2 1 2 3 4 1 1 2 2 1 3 3 2 3 1 1 3 3 2 3 2 5 4 3 5 11 18 19 20 22 17 8 4 5 2 5 7 9 10 10 10 9 10 10
17 16 7 14 15 11 9 5 3 2 1 2 3 1 1 2 3 2 1 2 2 4 1 2 2 3 4 4 4 6 4 3 4 5 9 12 17 18 19 20 14 12 8 3 2 1 3 5 7 5 6 8 9 9
15 3 15 16 14 12 10 3 3 3 2 3 3 2 2 2 3 2 1 3 2 2 2 1 4 0 1 4 4 3 3 5 9 9 9 13 16 18 19 19 18 14 10 6 3 3 1 4 5 6 10 9 9 10
2 7 18 17 11 6 2 2 2 3 4 4 2 2 2 2 3 1 2 2 2 2 2 3 3 6 4 3 4 3 5 6 7 9 9 13 14 17 15 16 17 14 10 8 2 4 1 4 5 5 7 7 7 9
8 9 18 19 6 4 4 4 3 2 4 2 2 2 3 3 2 2 2 3 2 2 4 4 5 3 2 1 3 6 6 6 9 9 9 11 13 14 15 17 17 15 10 10 5 2 2 1 3 4 4 5 5 6
17 14 13 11 3 1 3 3 3 2 2 3 3 3 4 3 3 2 4 4 4 3 5 4 2 1 1 1 3 5 7 7 7 8 8 8 9 14 12 11 11 13 10 12 8 7 3 3 3 3 4 4 5 5
8 5 9 5 2 1 1 1 2 4 2 3 3 3 3 2 3 3 3 2 5 3 3 2 1 1 3 4 3 4 6 6 6 4 7 8 9 9 9 9 11 9 9 9 9 9 6 2 1 2 2 3 3 3
4 10 3 2 2 3 2 3 3 1 3 3 3 3 4 3 2 1 2 5 3 1 1 1 1 1 3 2 3 4 7 7 6 6 8 9 8 8 9 9 10 10 10 9 9 9 8 4 1 3 4 2 3 4
9 3 2 3 3 3 5 2 2 2 3 2 3 4 2 2 3 3 4 2 2 2 2 1 1 1 2 1 2 4 5 8 5 5 6 7 7 7 7 8 8 9 10 10 9 9 8 9 4 1 3 4 2 1
1 3 4 5 4 4 2 2 2 2 2 2 4 4 3 4 3 4 3 2 2 3 2 1 2 2 3 4 3 4 4 5 5 5 4 7 7 8 7 7 8 7 8 8 8 9 9 9 10 5 2 3 3 3
4 4 5 4 3 3 4 4 3 2 3 4 4 3 3 3 3 2 4 3 3 3 2 2 2 2 1 2 2 4 5 3 5 4 6 6 6 6 6 7 7 7 9 10 10 10 9 9 9 9 6 2 5 5
3 4 6 6 3 4 5 5 6 5 4 4 4 4 3 4 3 3 4 4 3 3 3 3 4 1 1 0 1 3 4 4 3 3 3 5 6 7 8 8 9 9 9 9 10 11 11 9 9 11 10 5 5 6
3 5 4 3 2 2 2 1 3 4 4 4 4 3 4 4 4 3 2 2 4 3 4 3 2 3 3 2 1 3 3 3 1 3 4 4 4 4 6 8 10 10 10 11 10 11 12 12 11 10 10 8 4 5
4 2 4 3 3 2 2 3 4 4 4 3 4 3 7 6 4 4 4 3 5 4 3 0 2 3 4 3 2 2 4 5 5 5 3 3 3 3 7 6 7 14 9 9 10 10 10 10 10 10 10 9 8 5
3 2 3 2 2 2 4 5 4 3 2 3 5 3 3 2 2 3 3 4 4 5 4 4 5 6 5 4 3 3 4 4 8 9 10 7 7 5 8 8 8 8 8 9 12 11 14 12 10 10 11 8 8 5
3 3 3 4 4 5 3 3 3 3 3 4 5 4 4 4 4 3 6 5 4 5 4 4 4 4 4 4 3 4 4 4 2 3 1 4 5 8 8 8 8 8 9 10 11 12 16 12 10 8 10 8 4 3
2 4 4 1 2 2 5 8 8 6 4 5 7 6 5 4 3 6 4 3 4 4 5 4 4 3 4 4 4 3 3 4 4 5 3 3 4 6 7 8 8 7 8 9 10 11 13 11 11 12 12 13 12 9
3 4 5 4 0 5 5 3 4 4 3 3 3 3 3 4 3 2 2 2 4 5 3 4 5 3 2 3 4 4 5 2 2 3 5 4 5 7 7 6 7 7 8 9 9 10 13 13 11 13 12 14 14 14
3 3 5 5 4 4 3 4 4 3 3 3 3 2 3 4 4 2 2 1 4 4 4 4 4 3 6 6 5 4 4 4 4 2 3 4 5 7 6 6 6 7 9 8 9 10 12 13 13 15 15 15 15 17
Wind_Direction
238 244 248 253 259 264 266 266 288 306 314 313 321 328 332 334 331 3 271 192 179 259 282 239 253 200 226 168 224 287 358 348 338 20 312 339 329 322 348 293 281 226 173 225 240 244 279 165 80 255 293 299 311 303
233 242 243 246 255 260 260 255 274 296 302 306 314 319 322 323 321 330 270 257 180 232 257 280 256 241 227 234 160 239 224 22 270 32 352 352 330 342 52 290 327 305 200 263 193 226 233 207 256 286 278 298 311 301
229 240 243 246 252 259 252 255 268 290 298 305 311 313 313 314 311 298 244 228 258 284 292 332 264 262 232 233 210 176 265 196 244 161 205 267 273 187 261 251 281 275 266 243 304 280 278 297 295 278 280 288 300 291
223 233 240 244 249 252 248 255 269 285 291 302 305 306 307 306 306 311 242 213 226 282 288 282 320 303 275 228 186 208 224 178 158 141 224 239 265 207 249 247 253 246 306 249 259 279 311 292 302 312 279 305 317 294
213 226 234 242 248 250 241 247 264 279 290 300 303 303 309 310 311 318 249 225 202 149 283 291 311 250 271 237 228 205 207 195 165 193 197 229 240 246 242 251 243 203 217 256 284 294 290 284 295 310 295 309 306 304
212 212 227 240 246 251 245 248 263 278 292 299 302 305 304 307 321 12 346 48 173 153 285 310 274 284 306 313 204 187 194 207 200 184 218 231 243 186 259 258 258 304 308 259 282 288 279 277 279 325 311 303 310 300
212 199 214 245 246 244 244 249 267 284 295 298 298 299 295 292 214 200 209 180 151 126 252 288 305 283 296 302 349 98 139 187 179 228 222 228 227 188 254 257 305 298 294 293 299 275 293 299 315 308 307 309 300 299
199 207 216 238 245 234 238 252 272 289 296 298 300 298 286 249 232 256 251 249 185 178 259 295 280 323 356 310 315 175 164 169 204 235 225 214 185 216 259 257 269 266 288 290 280 279 261 295 305 323 322 304 311 309
194 201 218 237 234 225 232 253 279 292 302 307 307 300 99 103 163 228 138 114 142 157 285 277 296 300 345 289 275 311 143 255 219 235 231 152 203 234 256 294 299 294 297 283 295 303 300 309 326 336 330 322 319 323
185 196 217 232 225 217 225 250 282 304 313 309 114 138 148 134 343 112 231 200 122 96 235 251 280 277 329 276 292 307 249 259 266 221 154 213 264 280 314 333 311 306 266 316 331 325 329 320 347 339 327 331 339 325
180 192 212 233 218 206 209 252 300 324 346 40 36 175 311 315 99 115 191 209 142 243 224 244 242 281 256 247 277 229 271 251 270 240 254 210 29 345 336 329 314 298 289 28 352 315 300 306 337 335 331 344 340 334
177 191 209 226 201 181 205 229 302 29 126 175 213 310 304 44 102 190 193 149 208 231 227 229 241 217 273 237 275 308 284 249 276 152 235 44 336 335 332 323 326 296 37 295 329 312 321 324 339 347 340 341 344 344
180 191 205 203 174 178 200 205 230 245 339 117 124 314 88 203 74 204 42 328 327 223 239 242 287 235 323 264 279 315 265 311 317 3 43 48 331 333 332 319 320 61 105 280 314 325 337 342 353 5 354 354 352 1
179 193 196 173 172 179 195 200 218 142 141 182 167 341 186 204 212 174 178 202 241 224 273 246 248 219 258 292 247 281 340 27 60 24 9 336 331 329 329 344 345 358 237 281 333 343 347 1 5 4 2 354 354 6
177 187 168 171 171 184 191 194 191 146 171 196 152 215 212 197 217 218 214 349 281 245 288 336 4 95 311 291 7 325 349 39 38 25 320 324 328 328 333 334 327 323 291 285 357 6 355 359 8 7 0 353 2 11
165 145 165 173 179 186 179 162 158 188 208 208 223 257 264 79 341 9 27 314 294 308 20 56 47 47 356 349 26 12 25 25 339 334 315 317 326 328 327 333 329 334 335 293 166 101 2 4 351 349 5 24 15 20
130 169 172 167 172 168 157 142 168 206 231 211 245 185 177 166 198 247 199 266 328 42 338 55 60 228 290 41 25 37 36 320 310 311 317 318 323 325 328 332 342 349 345 335 169 147 33 4 344 12 17 13 23 31
106 150 155 158 139 125 137 214 229 197 228 226 185 220 140 126 115 350 317 310 26 18 50 66 70 42 37 31 332 345 314 308 310 312 319 311 318 320 330 333 337 338 344 354 64 141 90 26 8 7 16 10 20 28
139 140 151 155 144 149 155 182 191 226 219 194 164 139 107 115 62 53 9 350 62 60 80 49 70 62 34 10 310 322 320 318 322 325 315 317 314 324 328 336 339 345 359 1 350 244 154 90 49 355 12 21 27 17
120 128 141 157 145 156 179 215 148 169 219 213 101 102 113 107 131 61 31 22 47 55 49 54 72 76 326 295 290 320 317 321 317 319 324 322 326 333 340 343 341 345 356 2 5 18 48 39 45 60 16 30 41 12
96 128 118 122 182 224 285 255 200 202 197 133 135 114 105 84 68 49 27 6 56 44 90 66 92 269 268 291 22 314 319 326 326 313 314 319 336 341 337 352 348 351 4 5 357 350 14 27 128 119 81 40 46 43
106 150 111 183 218 184 253 232 202 223 124 138 117 114 119 121 135 114 127 48 74 81 117 149 262 288 326 4 344 333 335 336 329 336 341 329 343 353 347 350 354 355 357 360 353 343 337 333 351 113 118 97 43 47
133 121 137 158 193 128 249 120 177 185 141 188 102 113 127 122 155 113 71 99 133 145 167 211 254 344 331 349 354 336 348 348 337 329 351 356 354 353 347 347 354 355 354 352 346 340 339 341 349 10 114 116 131 71
114 155 176 179 169 201 183 204 194 120 122 121 136 113 144 132 163 70 124 177 145 154 134 88 59 66 11 13 357 328 332 340 329 329 358 358 358 356 348 350 351 353 355 334 342 347 343 348 343 338 275 141 135 115
115 226 141 214 200 182 192 156 167 135 171 161 142 127 163 118 103 133 170 214 163 141 158 148 97 86 163 290 318 331 333 352 337 335 13 354 349 353 354 4 0 354 349 344 348 347 348 342 342 338 324 180 165 153
193 214 172 191 186 187 192 160 177 172 157 153 182 126 88 96 109 197 206 159 144 139 184 178 161 125 352 334 351 332 317 320 339 11 342 347 353 359 349 347 355 352 348 337 335 338 337 338 337 338 329 310 187 159
210 222 215 242 218 223 182 93 111 124 169 172 153 114 107 132 189 180 148 189 121 149 164 168 190 185 173 162 358 332 324 353 13 255 273 348 353 351 357 343 350 344 329 338 337 332 330 330 326 321 315 312 281 190
234 246 196 202 205 203 169 162 141 168 187 163 109 133 151 165 161 169 167 168 131 129 124 165 251 154 125 121 98 353 355 346 345 347 3 337 338 344 358 337 339 339 339 339 338 332 328 320 309 300 297 300 300 229
224 233 183 237 207 219 212 195 188 179 131 110 106 115 120 79 174 124 130 126 111 109 86 66 45 99 91 83 64 41 31 29 35 28 19 355 348 337 347 338 340 348 344 340 340 338 332 323 312 304 291 267 262 271
236 193 175 215 191 206 227 173 117 84 48 86 106 97 56 33 358 28 106 98 102 108 116 105 117 123 145 136 111 52 19 41 65 103 75 342 314 315 328 337 342 349 346 344 346 343 345 349 351 358 1 351 318 272
218 183 183 330 271 151 103 97 79 72 64 63 62 93 111 131 51 31 55 75 108 108 94 79 63 60 98 122 147 114 54 11 32 39 30 330 318 335 339 338 336 345 352 352 355 358 354 355 1 1 1 359 352 342
203 204 182 164 319 151 146 68 67 82 100 72 101 83 89 80 90 7 350 79 83 83 87 100 99 70 59 88 89 90 106 95 50 35 23 10 3 353 344 341 341 354 358 1 0 1 2 6 3 7 6 3 359 354
195 213 198 150 138 175 122 108 114 91 89 101 98 109 66 99 120 186 334 59 132 146 127 107 112 95 78 93 123 111 106 85 56 85 90 58 35 20 9 357 353 4 6 7 7 6 11 9 13 11 13 17 17 20